Regional Weather Roundup
Issued by NWS Wakefield, VA

Home | Current Version | Previous Version | Text Only | Print | Product List | Glossary Off
Versions: 1 2 3 4 5 6 7 8 9 10 11 12 13 14 15 16 17 18 19 20 21 22 23 24 25 26 27 28 29 30 31 32 33 34 35 36 37 38 39 40 41 42 43 44 45 46 47 48 49 50

308
ASUS41 KAKQ 240715
RWRAKQ

REGIONAL WEATHER ROUNDUP
NATIONAL WEATHER SERVICE WAKEFIELD VA
200 AM EST FRI NOV 24 2017

Note: "fair" indicates few or no clouds below 12,000 feet with no
significant weather and/or obstructions to visibility. * = Denotes
station may not report precipitation (e.g., rain,snow,etc.),
thunder or fog.

VAZ042-051-052>054-056-240800-
NORTHERN VIRGINIA

CITY           SKY/WX    TMP DP  RH WIND       PRES   REMARKS
WASH NATIONAL  CLEAR     35  28  75 SW5       30.08S
DULLES         CLEAR     26  23  88 CALM      30.06S
FORT BELVOIR   CLEAR     27  24  89 CALM      30.08R
QUANTICO       CLEAR     31  28  89 W8        30.09S
FREDERICKSBRG* CLEAR     28  28  98 CALM      30.07S
STAFFORD*      CLEAR     24  24 100 CALM      30.11S
WARRENTON      NOT AVBL
CULPEPER*      CLEAR     24  22  90 CALM      30.08R
MANASSAS*      CLEAR     23  20  88 CALM      30.07S
LEESBURG*      CLEAR     30  28  93 CALM      30.06S
WINCHESTER     CLEAR     28  23  80 W3        30.04S
FRONT ROYAL*   SUNNY     28  23  80 MISG      30.03F
LURAY*         SUNNY     28  27  93 CALM      30.04F
$$

VAZ048-049-060>072-079>083-240800-
CENTRAL AND SOUTH CENTRAL VIRGINIA

CITY           SKY/WX    TMP DP  RH WIND       PRES   REMARKS
RICHMOND       CLEAR     28  25  88 CALM      30.08R
CHESTERFIELD*  NOT AVBL
PETERSBURG*    CLEAR    N/A N/A N/A CALM      30.09S
HANOVER        CLEAR     27  25  92 CALM      30.09S
TAPPAHANNOCK*    N/A    N/A N/A N/A MISG        N/A
QUINTON*       FAIR      26  26 100 CALM      30.08S
CHARLOTTSVILLE CLEAR     29  25  85 CALM      30.05R
GORDONSVILLE*  SUNNY     26  25  95 CALM      30.06R
ORANGE*        CLEAR     27  23  86 CALM      30.06R
LOUISA*        CLEAR     24  22  94 CALM      30.11R
BUMPASS*       FAIR      27  25  93 CALM      30.07S
FARMVILLE*     CLEAR     26  26 100 CALM      30.06S
CREWE*         FAIR      25  25 100 CALM      30.06S
FORT PICKETT*  FAIR      28  28 100 CALM      30.07S
CHASE CITY*    FAIR      28  28 100 CALM      30.06F
CLARKSVILLE*   FAIR      28  28 100 CALM      30.06F
SOUTH HILL*    CLEAR     27  26  97 CALM      30.12S
LAWRENCEVILLE* FAIR      28  26  94 CALM      30.07S
EMPORIA*       CLEAR     27  27 100 CALM      30.10S
$$

VAZ088>098-240800-
SOUTHEAST VIRGINIA

CITY           SKY/WX    TMP DP  RH WIND       PRES   REMARKS
NORFOLK        CLEAR     32  31  96 SW5       30.08S
VIRGINIA BEACH CLEAR     31  29  92 SW3       30.08R
NORFOLK NAVAL  CLEAR     32  28  85 CALM      30.10R
WEST POINT*    CLOUDY    26  25  95 CALM      30.10F VSB 1/2
SALUDA*        FAIR      28  27  99 CALM      30.08S
NEWPORT NEWS   CLEAR     27  24  89 CALM      30.09S
LANGLEY AFB    CLEAR     31  28  91 CALM      30.08S
FORT EUSTIS    CLEAR     30  27  90 CALM      30.06S
WILLIAMSBURG*  CLEAR     30  28  93 CALM      30.10R
HR EXEC AP*    NOT AVBL
FRANKLIN*      CLEAR     26  24  92 CALM      30.10S
US460-WAKEFLD  CLEAR     26  25  96 CALM      30.09R
$$

VAZ020-022-025-037-045-240800-
WEST CENTRAL AND SOUTHWEST VIRGINIA

CITY           SKY/WX    TMP DP  RH WIND       PRES   REMARKS
STAUNTON*      CLEAR     22  20  90 CALM      30.06S
WAYNESBORO*    SUNNY     26  23  86 CALM      30.03R
HOT SPRINGS VA CLEAR     34   7  31 CALM      29.98R
LYNCHBURG      CLEAR     27  23  85 CALM      30.05S
DANVILLE       CLEAR     25  24  96 CALM      30.07R
SOUTH BOSTON*  FAIR      25  24  96 CALM      30.07S
MARTINSVILLE   CLEAR     24  22  92 CALM      30.08S
ROANOKE        CLEAR     31  25  78 CALM      30.06S
BLACKSBURG     CLEAR     28  24  85 CALM      30.06R
DUBLIN*        CLOUDY    30  24  78 SW3       30.04S
MARION*        CLEAR     28  25  87 CALM      30.05S
HILLSVILLE*    CLOUDY    32  26  77 W5        30.00S
RICHLANDS*     FAIR      37  23  56 CALM      30.02R
WISE*          CLEAR     39  25  56 CALM      30.02S
ABINGDON*      CLEAR     33  30  89 E3        30.03R
$$

MDZ021>025-VAZ099-100-240800-
SOUTHERN MARYLAND AND THE DELMARVA PENINSULA

CITY           SKY/WX    TMP DP  RH WIND       PRES   REMARKS
PATUXENT RIVER CLEAR     28  27  96 SW3       30.08S
BAY BRIDGE APT CLEAR     32  28  86 MISG      30.07F
LEONARDTOWN    CLEAR     28  28 100 CALM      30.09S
DOVER          CLEAR     29  29  99 S3        30.07F
GEORGETOWN     CLEAR     27  24  89 CALM      30.08F
EASTON         CLEAR     30  27  88 CALM      30.11S
CAMBRIDGE      CLEAR     28  27  93 CALM      30.08S
SALISBURY      CLEAR     26  24  92 CALM      30.08S
OCEAN CITY     CLEAR     26  24  92 CALM      30.09S
WALLOPS ISLAND CLEAR     28  26  92 CALM      30.09S
ACCOMACK*      CLEAR     29  27  94 SE3       30.09R
$$

NCZ012>017-030>032-240800-
NORTH CENTRAL AND EASTERN NORTH CAROLINA

CITY           SKY/WX    TMP DP  RH WIND       PRES   REMARKS
ROANOKE RAPIDS FAIR      28  28 100 CALM      30.08F
RALEIGH        PTCLDY    28  26  92 CALM      30.07S
ELIZABETH CITY CLEAR     35  32  88 N5        30.08F
AHOSKIE*       CLEAR     28  28  99 CALM      30.09S
EDENTON*       CLEAR     34  32  95 CALM      30.08F
CURRITUCK*     CLEAR     35  33  96 CALM      30.09S
KILL DEVIL HLS CLEAR     42  36  78 CALM      30.05F
MANTEO         CLEAR     42  36  80 N3        30.06F
CAPE HATTERAS  CLOUDY    51  42  71 NE8       30.03S
TARBORO*       NOT AVBL
GOLDSBORO      CLEAR     37  34  89 CALM      30.04S
WASHINGTON     CLOUDY    33  32  94 CALM      30.06F
GREENVILLE     CLEAR     30  30 100 CALM      30.08S FOG
NEW BERN       PTCLDY    39  38  96 NE5       30.05F
WILMINGTON     CLOUDY    45  41  86 N9        30.03R
$$

VAZ048-240800-
ELSEWHERE

CITY           SKY/WX    TMP DP  RH WIND       PRES   REMARKS
HARRISBURG PA  PTCLDY    27  25  92 CALM      30.05R
BALTIMORE      CLEAR     28  25  88 CALM      30.05F
ANNAPOLIS      CLEAR     34  27  75 CALM      30.06
ANDREWS AFB    CLEAR     27  24  88 CALM      30.06R
PHILADELPHIA   CLEAR     34  26  72 SW3       30.07S
HENDERSON NC   CLEAR     27  25  94 CALM      30.06F
GREENSBORO     CLEAR     31  28  89 CALM      30.04S
ROCKY MOUNT    CLEAR     28  28 100 N3        30.07F FOG
$$

VAZ100-240800-
MARINE

STATION/POSITION TIME  TEMP    WIND        PRES    WAVE   SWELL
                       AIR SEA DIR/SP/G            HT/PER HT/PER
                 (UTC) (F)     (DEG/KT/KT) (MB)    (FT/S) (FT/S)
BRANDYWINE LGT   0642          270/  8/  9 1018.6F
CAPE MAY NJ      0642      50  300/  2/  3 1017.7F
LEWES DE         0642      48  220/  6/  7 1018.2F
15NM E FENWICK I 0650   43 57  310/  8/ 10 1018.7F   2/10   2/10
OCEAN-CITY-INLET 0642      52  310/  1/  2 1019.0F
WACHAPREAGUE VA  0642      47   CALM  /  1 1018.9R
THOMAS POINT MD  0700   42 51  260/  4/  4   N/A
GOOSES REEF MD   0650   43     260/  4/  6 1018.7F
COVE POINT MD    0642          280/  3/  5 1019.1F
SOLOMONS ISLAND  0642      53  210/  3/  4 1018.3R
BISHOPS HEAD MD  0642      45   10/  3/  4 1018.8S
PINEY POINT MD   0642          280/  6/  6   N/A
POTOMAC MD       0650   43     270/  4/  6 1018.1R
CAMBRIDGE MD     0642      49              1019.1F
LEWISETTA VA     0642      47  250/  2/  3 1018.7R
RAPPAHANNOCK LGT 0642           20/  4/  6 1019.2R
STINGRAY PT      0650   42     300/  2/  4 1018.8R
YORK RVR RNG VA  0642          340/  3/  4 1019.2R
YORKTOWN VA      0642      53  210/  1/  2 1018.4R
JAMESTOWN VA     0650          120/  2/  2   N/A
DOMINION TERM VA 0642           30/  3/  3 1018.9R
KIPTOPEKE VA     0642      52   50/  4/  4   N/A
CAPE HENRY VA    0642          340/  8/ 10   N/A
WILLOUBY STN VA  0642          350/  3/  4 1018.6R
S CRANEY ISL VA  0642          250/  4/  4 1018.5S
CAPE HENRY BUOY  0700      59                N/A     3/ 9   2/11
1ST LANDING BUOY 0650   44      20/  6/  8 1018.5F
CAPE CHARLES BUO 0651      58                N/A     3/ 9   2/11
64NM E OF VA BCH 0650   48 59  350/  8/ 12 1018.3R   5/ 9   5/ 9
DUCK PIER NC     0642      57  330/ 10/ 11 1017.4F
44100 DUCK FRF   0645      60                N/A     4/ 9   2/11
44056 DUCK FRF   0700      60                N/A     4/ 9   2/11
OREGON INLET NC  0642      58   20/  5/ 10 1017.4F
HATTERAS NC      0642      58   20/ 14/ 17 1016.5F
DIAMOND SHLS NC  0700   57 72   20/ 16/ 19 1016.3
CAPE LOOKOUT NC  0700           10/ 13/ 16 1016.4F
$$




USA.gov is the U.S. government's official web portal to all federal, state and local government web resources and services.